ARIANE 2 DEB, 33574

Orbit data source: Space-Track

ARIANE 2 DEB, 33574 is space debris in HEO originally from a launch on Fri, 27 Jan 1989 UTC launched from the French Guiana (FRGUI). Debris objects in space refer to the collection of defunct objects orbiting the Earth. Examples of debris include non-operational satellites, rocket bodies, and fragments generated from explosions, collisions, or faulty payload assembly.

Loading next visibility...
Identifier
33574, 1989-006BS
Orbit
HEO
Country
Flag of FRFR
Related business
Manufacturer
EADS/LV
Mission
Spacecraft
Bus & Motor
Unknown
Mass
Unknown
Launch date (UTC)
1989-01-27 (37 years ago)
Launch vehicle
Unknown
Launch site
French Guiana (FRGUI)
Object type
Payload
Rocket body
Debris
Shape & HBR
Unknown shape, 0.3 m
Radar Cross Section
Medium (>0.1 m² and <1 m²)

Expand to show TLE details & history
Last TLE update: 4 weeks ago

TLE from 4 weeks ago
0 ARIANE 2 DEB
1 33574U 89006BS  25265.01591838 -.00000011  00000-0  30062-2 0  9996
2 33574   8.0019 250.4100 7110657  96.1377 351.3963  2.29211485163424
Epoch: 2025-09-22T00:22Z
TLE epoch observation values (Epoch: 2025-09-22T00:22:55.348Z)
Latitude
4.58945°
Longitude
-82.23804°
Altitude
2,570.122 km
Speed
8.525 km/s
True Right ascension
18h 58m 28s
True Declination
4° 34' 04"
Sunlit
Object was in daylight at epoch
Visualization orbit readout
Latitude
Unknown
Longitude
Unknown
Altitude
Unknown
Speed
Unknown
Apparent Right ascension
Unknown
Apparent Declination
Unknown
Sunlit
N/A
Visualization observer readout
Local Sidereal Time
11:02:34
Azimuth
Unknown
Elevation
Unknown
Doppler factor
Unknown
Orbital elements
Apogee altitude
35,206.703 km
Perigee altitude
643.97 km
Semi-major axis
24,303.474 km
Eccentricity
0.71107
Inclination
8.0019°
RAAN
250.41°
Arg. of periapsis
96.1377°
True anomaly
298.88988°
Mean anomaly
351.3963°
Eccentric anomaly
332.72834°
Mean motion
0.57285 °/min
Orbital period
628.44 mins
BSTAR
0.0030062
Loading maneuver chart data...
Computing Atmospheric mass density...
Loading historical data...
Loading historical data...
Loading historical data...
Loading historical data...
Loading historical data...
Loading historical data...
Loading historical data...

Documentation

Showing up to 5 results
|